[[{"header":{"parameterUnit":"m.s-1","parameterCategory":1,"la1":30.2991,"la2":30.254,"lo1":-89.0895,"lo2":-89.0444,"dy":0.0017,"dx":0.0017,"nx":28,"ny":28,"refTime":"2024-07-09T09:00:00:Z","depth":0,"parameterNumber":2,"parameterNumberName":"U-component_of_WINDS"},"data":[0,0,0,0,0,0,0,0,0,0,0,0,0,0,0,0,0,0,0,0,0,0,0,0,0,0,0,0,0,0,0,0,0,0,0,0,0,0,0,0,0,0,0,0,0,0,0,0,0,0,0,0,0,0,0,0,0,0,2.1275,2.1275,0,2.1274,2.1274,2.1274,2.1214,2.1212,2.121,2.1209,2.1211,2.1212,2.1214,0,0,0,0,0,0,0,0,0,0,0,0,0,2.1227,2.1228,2.1275,2.1275,2.1275,2.1274,2.1274,2.1274,2.1214,2.1212,2.121,2.1208,2.121,2.1212,2.1214,0,0,0,0,0,0,0,0,0,0,0,0,0,2.1239,2.1228,2.1275,2.1245,2.1242,2.1274,2.1274,2.1274,2.1214,2.1212,2.1209,2.1207,2.121,2.1212,2.1214,2.1276,0,0,2.1221,2.1222,0,0,0,0,0,0,0,0,2.1238,2.1241,2.1249,2.1247,2.1244,2.1241,2.1258,2.1275,2.1215,2.1225,2.1209,2.1206,2.1223,2.1224,2.1229,2.1276,2.1277,2.1222,2.1223,2.1224,2.1225,0,0,0,0,0,0,0,2.1238,2.1241,2.1275,2.1249,2.1246,2.1232,2.1231,2.1261,2.1238,2.1224,2.1219,2.122,2.1221,2.1227,2.1229,2.1277,2.1222,2.1224,2.1225,2.1226,2.1375,2.1378,0,0,0,0,0,0,2.1241,2.124,2.1275,2.1275,2.1235,2.1235,2.1234,2.1245,2.1237,2.1233,2.1222,2.1217,2.1225,2.1226,2.1229,2.1301,2.1224,2.1226,2.1228,2.1373,2.1376,2.1379,0,0,0,0,0,0,2.124,2.1244,2.1275,2.1256,2.1259,2.1238,2.1251,2.1246,2.1252,2.1236,2.1231,2.1232,2.1223,2.1226,2.1265,2.13,2.1227,2.1229,2.137,2.1374,2.1377,2.1446,0,0,0,0,0,0,2.1239,2.1244,2.1267,2.1257,2.126,2.131,2.1253,2.1248,2.1256,2.1249,2.1244,2.1241,2.1221,2.1262,2.1267,2.1302,2.1231,2.1366,2.1371,2.1376,2.1441,2.1452,2.1462,0,0,0,0,0,2.1237,2.1287,2.1268,2.1273,2.1288,2.1312,2.1314,2.1289,2.1259,2.1282,2.1271,2.1241,2.1296,2.1266,2.1272,2.1308,2.1364,2.137,2.1376,2.1436,2.145,2.1461,0,0,0,0,0,0,2.1302,2.1285,2.1264,2.1312,2.1314,2.1302,2.133,2.1305,2.1316,2.1309,2.1279,2.1279,2.1323,2.1319,2.1287,2.1368,2.1325,2.1332,2.1369,2.1382,2.1392,2.1392,2.1233,0,0,0,0,0,2.1322,2.1342,2.1326,2.137,2.1372,2.1351,2.1361,2.1342,2.1343,2.1343,2.1336,2.1339,2.1356,2.1369,2.1384,2.144,2.1439,2.1468,2.1478,2.1487,2.1494,2.1524,2.1537,2.1398,2.1398,2.1397,0,0,2.1363,2.1356,2.1371,2.1383,2.1382,2.1405,2.1352,2.1378,2.1395,2.1347,2.1384,2.1379,2.138,2.1428,2.1449,2.1427,2.1532,2.1494,2.1502,2.1503,2.1531,2.1544,2.1556,2.1401,2.1401,2.14,0,0,2.145,2.1447,2.1483,2.1483,2.1482,2.1468,2.1477,2.1469,2.1463,2.1499,2.1464,2.1484,2.1515,2.1517,2.1523,2.1611,2.1584,2.1617,2.1672,2.1702,2.1713,2.1722,2.1754,2.1766,2.1624,2.1624,2.1624,0,2.1502,2.1533,2.1505,2.1533,2.154,2.1497,2.1534,2.1536,2.1541,2.1547,2.1522,2.156,2.1558,2.1606,2.1628,2.1634,2.1643,2.1618,2.1713,2.1723,2.1731,2.1761,2.1773,2.1628,2.1628,2.1627,2.1627,0,2.1597,2.162,2.1649,2.1654,2.1664,2.1697,2.1674,2.1688,2.1668,2.1657,2.1695,2.1691,2.1705,2.1715,2.1696,2.1761,2.1747,2.1718,2.1674,2.1749,2.1777,2.1788,2.1634,2.1633,2.1631,2.163,0,0,2.1724,2.1713,2.1724,2.1726,2.1722,2.174,2.1771,2.1784,2.1797,2.1802,2.1828,2.1855,2.1828,2.1835,2.1816,2.1842,2.1913,2.1809,2.1809,2.1829,2.1984,2.2006,2.202,2.1895,2.1897,2.1898,2.1984,0,2.1808,2.186,2.1836,2.189,2.1911,2.1872,2.1899,2.19,2.1891,2.1908,2.1898,2.1918,2.1881,2.1884,2.1908,2.1899,2.1943,2.1892,2.1919,2.1921,2.192,2.2035,2.2058,2.2139,2.1995,2.1997,2.1998,0,2.1913,2.1922,2.1978,2.1971,2.1979,2.2004,2.2014,2.2031,2.2032,2.2023,2.203,2.2006,2.2037,2.1993,2.2036,2.2002,2.2011,2.2009,2.2011,2.2013,2.1964,2.204,2.2164,2.2177,2.2015,2.2014,2.2012,0,2.2,2.2026,2.2064,2.2067,2.2059,2.2077,2.2075,2.2074,2.2083,2.2093,2.2099,2.2112,2.212,2.2131,2.2111,2.2081,2.2158,2.2112,2.2152,2.2153,2.217,2.2169,2.2298,2.2176,2.2176,2.2176,2.2176,0,2.2097,2.2133,2.2103,2.2126,2.2166,2.2138,2.2179,2.2173,2.2172,2.2194,2.2161,2.2182,2.2154,2.2174,2.2158,2.2197,2.22,2.2195,2.2191,2.2198,2.2199,2.2204,2.2198,2.2179,2.2178,2.2178,2.2177,0,2.2201,2.2182,2.222,2.221,2.2209,2.2239,2.223,2.2252,2.224,2.2268,2.2273,2.2255,2.2276,2.2257,2.2278,2.2268,2.2319,2.2306,2.2318,2.2315,2.2356,2.2353,2.2494,2.2511,2.2378,2.2379,2.238,0,2.2264,2.2291,2.2284,2.2296,2.2295,2.2315,2.2324,2.2299,2.231,2.2314,2.2335,2.2353,2.2366,2.2401,2.2391,2.2406,2.2394,2.2442,2.2396,2.2403,2.2395,2.2394,2.2397,2.2452,2.2453,2.2454,2.2456,0,2.2378,2.2367,2.2382,2.2393,2.2405,2.2413,2.2419,2.2431,2.2404,2.2419,2.2439,2.245,2.247,2.2488,2.2501,2.2499,2.2474,2.247,2.248,2.2488,2.2494,2.2492,2.2344,2.2467,2.2466,2.2465,2.2464,2.2464,2.2463,2.2486,2.2484,2.2502,2.2503,2.2509,2.2529,2.252,2.2536,2.255,2.2534,2.2559,2.256,2.2574,2.2576,2.2596,2.2576,2.2591,2.2595,2.2599,2.2605,2.2491,2.2598,2.2598,2.2598,2.2597,2.2597,0,2.2576,2.2573,2.2589,2.2598,2.2612,2.2585,2.259,2.2604,2.2626,2.2629,2.2642,2.2666,2.2684,2.2675,2.2691,2.2709,2.2698,2.2714,2.2713,2.2713,2.2622,2.2611,2.2723,2.2723,2.2723,2.2723,2.2723,2.2723,2.2636,2.2672,2.2662,2.2699,2.2696,2.272,2.2725,2.2731,2.2733,2.2761,2.2775,2.2769,2.2767,2.2783,2.2798,2.2795,2.2803,2.2824,2.2817,2.2732,2.2719,2.2708,2.2698,2.2826,2.2826,2.2907,2.2907,2.2908]},{"header":{"parameterUnit":"m.s-1","parameterCategory":1,"la1":30.2991,"la2":30.254,"lo1":-89.0895,"lo2":-89.0444,"dy":0.0017,"dx":0.0017,"nx":28,"ny":28,"refTime":"2024-07-09T09:00:00:Z","depth":0,"parameterNumber":3,"parameterNumberName":"V-component_of_WINDS"},"data":[0,0,0,0,0,0,0,0,0,0,0,0,0,0,0,0,0,0,0,0,0,0,0,0,0,0,0,0,0,0,0,0,0,0,0,0,0,0,0,0,0,0,0,0,0,0,0,0,0,0,0,0,0,0,0,0,0,0,0.4362,0.4361,0,0.4272,0.4271,0.427,0.4257,0.4258,0.4259,0.426,0.4159,0.4156,0.4153,0,0,0,0,0,0,0,0,0,0,0,0,0,0.4518,0.4515,0.4362,0.4361,0.436,0.4272,0.4271,0.4269,0.4257,0.4258,0.4259,0.426,0.4161,0.4156,0.4152,0,0,0,0,0,0,0,0,0,0,0,0,0,0.4441,0.4514,0.4362,0.4343,0.4341,0.4272,0.427,0.4269,0.4257,0.4258,0.4259,0.426,0.4162,0.4157,0.4152,0.4094,0,0,0.4136,0.4134,0,0,0,0,0,0,0,0,0.4445,0.4435,0.4347,0.4344,0.4341,0.4277,0.4289,0.421,0.4256,0.4288,0.426,0.4261,0.4197,0.4189,0.4169,0.4089,0.4085,0.4135,0.4132,0.413,0.4128,0,0,0,0,0,0,0,0.4451,0.4439,0.4326,0.4346,0.4342,0.4337,0.4328,0.4274,0.4236,0.4286,0.4284,0.4274,0.4196,0.4174,0.4166,0.4083,0.4135,0.4131,0.4128,0.4126,0.3951,0.395,0,0,0,0,0,0,0.446,0.4443,0.4329,0.4323,0.4398,0.4333,0.4323,0.4296,0.4237,0.4229,0.4273,0.4274,0.4182,0.4173,0.4163,0.4091,0.413,0.4125,0.4122,0.3953,0.3951,0.3949,0,0,0,0,0,0,0.4464,0.445,0.4332,0.4383,0.4368,0.4329,0.43,0.4294,0.4272,0.4228,0.422,0.4259,0.4183,0.417,0.4112,0.4088,0.4123,0.4118,0.3954,0.3952,0.395,0.3947,0,0,0,0,0,0,0.4468,0.4452,0.443,0.4383,0.4365,0.4284,0.4298,0.4291,0.4264,0.4264,0.4212,0.4204,0.4183,0.4119,0.4106,0.4081,0.4114,0.3956,0.3953,0.3951,0.3949,0.3945,0.3942,0,0,0,0,0,0.4474,0.4431,0.4429,0.4416,0.4338,0.4283,0.4273,0.4251,0.4262,0.424,0.4211,0.4206,0.4093,0.4114,0.4099,0.4071,0.3958,0.3954,0.3951,0.3951,0.3946,0.3942,0,0,0,0,0,0,0.4474,0.4425,0.4422,0.4363,0.4328,0.4281,0.4252,0.4247,0.4205,0.4207,0.418,0.4168,0.411,0.4085,0.4109,0.4012,0.4026,0.4019,0.4031,0.4026,0.4022,0.4029,0.411,0,0,0,0,0,0.4468,0.4429,0.4387,0.4339,0.4322,0.4291,0.4266,0.4253,0.4214,0.4198,0.4165,0.4126,0.4081,0.4052,0.4009,0.3946,0.3934,0.392,0.3916,0.3913,0.3908,0.3873,0.3866,0.3938,0.3938,0.3938,0,0,0.4453,0.4422,0.4398,0.4339,0.431,0.4269,0.4278,0.4234,0.4202,0.419,0.4134,0.4108,0.4062,0.4002,0.3973,0.3979,0.3885,0.3909,0.3907,0.3903,0.3868,0.3862,0.3856,0.3936,0.3936,0.3937,0,0,0.4406,0.4379,0.4336,0.4308,0.4265,0.4245,0.4235,0.4189,0.4173,0.4116,0.4107,0.4068,0.3992,0.396,0.3934,0.3877,0.387,0.3863,0.3843,0.3809,0.3803,0.3798,0.3777,0.377,0.3858,0.3858,0.3858,0,0.4392,0.4333,0.4314,0.4271,0.4245,0.4236,0.4192,0.4164,0.4108,0.4089,0.4097,0.4003,0.3971,0.3903,0.389,0.3869,0.3855,0.3869,0.3806,0.3801,0.3796,0.3775,0.3768,0.3857,0.3858,0.3858,0.3858,0,0.4318,0.4277,0.4247,0.4197,0.4167,0.4124,0.4098,0.407,0.406,0.4038,0.398,0.3942,0.3892,0.3875,0.3863,0.3805,0.381,0.3812,0.3825,0.3789,0.3769,0.3761,0.3857,0.3857,0.3857,0.3857,0,0,0.4266,0.4209,0.4198,0.4175,0.4129,0.4095,0.4051,0.4004,0.3981,0.3943,0.3904,0.3842,0.3844,0.3815,0.3799,0.377,0.3727,0.3776,0.3775,0.3768,0.3661,0.3658,0.365,0.3723,0.3722,0.3721,0.3664,0,0.4213,0.4137,0.412,0.4054,0.4015,0.4006,0.3968,0.3934,0.3913,0.3875,0.3851,0.3807,0.3814,0.3796,0.3767,0.3739,0.3705,0.3743,0.3685,0.3683,0.3696,0.364,0.3637,0.3585,0.3657,0.3655,0.3654,0,0.414,0.4104,0.4035,0.3995,0.3978,0.3944,0.39,0.3865,0.3826,0.3813,0.3781,0.377,0.3722,0.3739,0.3672,0.3698,0.3674,0.3657,0.3654,0.3647,0.3666,0.363,0.3569,0.3561,0.3642,0.3643,0.3644,0,0.4109,0.4043,0.3993,0.3974,0.3926,0.3902,0.3881,0.3844,0.3817,0.3778,0.376,0.3716,0.369,0.3655,0.3631,0.3646,0.3566,0.3581,0.3552,0.3553,0.3534,0.3536,0.3467,0.3521,0.3521,0.3521,0.3521,0,0.4051,0.4008,0.3979,0.3948,0.39,0.3881,0.3833,0.3811,0.3779,0.3742,0.3731,0.3697,0.3668,0.3629,0.361,0.3558,0.3546,0.3533,0.3528,0.3533,0.3535,0.3516,0.3518,0.3519,0.3519,0.352,0.352,0,0.4007,0.3985,0.3931,0.3891,0.388,0.3846,0.3811,0.378,0.376,0.3714,0.3702,0.3669,0.3623,0.3596,0.3537,0.3524,0.3466,0.3463,0.348,0.3477,0.345,0.3453,0.3366,0.3353,0.3416,0.3415,0.3415,0,0.397,0.3938,0.3896,0.3873,0.3851,0.3813,0.3787,0.3766,0.3739,0.3694,0.3668,0.3622,0.3584,0.351,0.348,0.3435,0.343,0.3403,0.3423,0.3429,0.3428,0.343,0.3427,0.3399,0.3398,0.3398,0.3397,0,0.3908,0.39,0.3864,0.3824,0.3794,0.3761,0.3729,0.3709,0.3683,0.3653,0.3607,0.3578,0.352,0.3474,0.3427,0.3402,0.3394,0.3392,0.3383,0.3387,0.3398,0.3391,0.3469,0.3393,0.3394,0.3394,0.3394,0.3394,0.3866,0.3838,0.3804,0.3764,0.3739,0.3709,0.3678,0.3656,0.3618,0.3571,0.3561,0.3513,0.3475,0.3412,0.3386,0.3347,0.3351,0.3338,0.3334,0.3331,0.333,0.3406,0.3338,0.3338,0.3338,0.3338,0.3338,0,0.3803,0.3782,0.3746,0.3702,0.3671,0.367,0.3634,0.3607,0.3566,0.3533,0.3497,0.3445,0.3401,0.3368,0.3322,0.3297,0.3293,0.3286,0.3286,0.3281,0.3329,0.3341,0.329,0.329,0.329,0.329,0.329,0.329,0.3766,0.3718,0.3706,0.3644,0.3623,0.3578,0.3557,0.3529,0.3503,0.3446,0.3411,0.3391,0.3358,0.331,0.3269,0.326,0.3243,0.3237,0.3227,0.3272,0.3277,0.3282,0.3294,0.3234,0.3234,0.3183,0.3182,0.3182]}]]